Вернуться в каталог

TITAN 3C TRANSTAGE DEB

АктивенLEO
NORAD 1680·DEBRIS·🇺🇸 United States

Запущен Oct 15, 1965 с Cape Canaveral Space Force Station

Loading…

Ближайшие Пролёты (ближайшие 24 часа)

TLE

СвежийSource: Space-Track

Эпоха: Sep 14, 2026, 14:07 UTC

1 01680U 65082AT  26257.58823920  .00000289  00000-0  45529-4 0  9993
2 01680  32.2570 354.3466 0020671 320.4060  39.5079 14.65781433226788

Отслеживайте TITAN 3C TRANSTAGE DEB в реальном времени с AllMySat

Download on the App Store